TimeEDT,TemperatureF,Dew PointF,Humidity,Sea Level PressureIn,VisibilityMPH,Wind Direction,Wind SpeedMPH,Gust SpeedMPH,PrecipitationIn,Events,Conditions,WindDirDegrees,DateUTC
12:15 AM,59.0,37.4,45,30.27,10.0,SE,3.5,-,N/A,,Clear,130,2013-06-21 04:15:00
12:35 AM,57.2,37.4,48,30.27,10.0,South,3.5,-,N/A,,Clear,180,2013-06-21 04:35:00
12:55 AM,57.2,39.2,51,30.27,10.0,South,3.5,-,N/A,,Clear,180,2013-06-21 04:55:00
1:15 AM,57.2,39.2,51,30.27,10.0,Calm,Calm,-,N/A,,Clear,0,2013-06-21 05:15:00
1:35 AM,57.2,39.2,51,30.27,10.0,South,3.5,-,N/A,,Clear,170,2013-06-21 05:35:00
1:55 AM,55.4,41.0,58,30.27,10.0,South,3.5,-,N/A,,Clear,170,2013-06-21 05:55:00
2:15 AM,53.6,42.8,67,30.27,10.0,SSE,3.5,-,N/A,,Clear,160,2013-06-21 06:15:00
2:35 AM,53.6,42.8,67,30.27,10.0,South,4.6,-,N/A,,Clear,180,2013-06-21 06:35:00
2:55 AM,53.6,44.6,72,30.27,10.0,South,4.6,-,N/A,,Clear,180,2013-06-21 06:55:00
3:15 AM,53.6,44.6,72,30.27,10.0,Calm,Calm,-,N/A,,Clear,0,2013-06-21 07:15:00
3:35 AM,55.4,42.8,63,30.26,10.0,Calm,Calm,-,N/A,,Clear,0,2013-06-21 07:35:00
3:55 AM,55.4,42.8,63,30.26,10.0,South,3.5,-,N/A,,Clear,190,2013-06-21 07:55:00
4:15 AM,51.8,42.8,71,30.26,10.0,South,5.8,-,N/A,,Clear,170,2013-06-21 08:15:00
4:35 AM,53.6,42.8,67,30.26,10.0,Calm,Calm,-,N/A,,Clear,0,2013-06-21 08:35:00
4:55 AM,53.6,42.8,67,30.26,10.0,Calm,Calm,-,N/A,,Clear,0,2013-06-21 08:55:00
5:15 AM,55.4,44.6,67,30.27,10.0,SSW,3.5,-,N/A,,Clear,200,2013-06-21 09:15:00
5:35 AM,53.6,44.6,72,30.27,10.0,Calm,Calm,-,N/A,,Clear,0,2013-06-21 09:35:00
5:55 AM,53.6,44.6,72,30.27,10.0,Calm,Calm,-,N/A,,Clear,0,2013-06-21 09:55:00
6:15 AM,53.6,44.6,72,30.27,10.0,Calm,Calm,-,N/A,,Clear,0,2013-06-21 10:15:00
6:35 AM,51.8,44.6,76,30.28,10.0,Calm,Calm,-,N/A,,Clear,0,2013-06-21 10:35:00
6:55 AM,53.6,46.4,77,30.28,10.0,Calm,Calm,-,N/A,,Clear,0,2013-06-21 10:55:00
7:15 AM,55.4,48.2,77,30.28,10.0,Calm,Calm,-,N/A,,Clear,0,2013-06-21 11:15:00
7:35 AM,57.2,48.2,72,30.28,10.0,Calm,Calm,-,N/A,,Clear,0,2013-06-21 11:35:00
7:55 AM,59.0,48.2,67,30.29,10.0,Calm,Calm,-,N/A,,Clear,0,2013-06-21 11:55:00
8:15 AM,59.0,50.0,72,30.29,10.0,South,4.6,-,N/A,,Clear,180,2013-06-21 12:15:00
8:35 AM,60.8,51.8,72,30.29,10.0,South,3.5,-,N/A,,Clear,170,2013-06-21 12:35:00
8:55 AM,62.6,51.8,68,30.29,10.0,WSW,4.6,-,N/A,,Clear,240,2013-06-21 12:55:00
9:15 AM,64.4,51.8,64,30.29,10.0,WSW,4.6,-,N/A,,Clear,250,2013-06-21 13:15:00
9:35 AM,66.2,51.8,60,30.30,10.0,SW,4.6,-,N/A,,Clear,230,2013-06-21 13:35:00
9:55 AM,66.2,51.8,60,30.30,10.0,WSW,4.6,-,N/A,,Clear,250,2013-06-21 13:55:00
10:15 AM,68.0,46.4,46,30.31,10.0,SW,3.5,-,N/A,,Clear,230,2013-06-21 14:15:00
10:35 AM,69.8,46.4,43,30.30,10.0,South,4.6,-,N/A,,Clear,180,2013-06-21 14:35:00
10:55 AM,69.8,46.4,43,30.31,10.0,West,5.8,-,N/A,,Clear,260,2013-06-21 14:55:00
11:15 AM,69.8,46.4,43,30.31,10.0,West,4.6,-,N/A,,Clear,270,2013-06-21 15:15:00
11:35 AM,71.6,46.4,41,30.30,10.0,SW,4.6,-,N/A,,Clear,220,2013-06-21 15:35:00
11:55 AM,71.6,48.2,43,30.29,10.0,WSW,6.9,-,N/A,,Clear,250,2013-06-21 15:55:00
12:15 PM,71.6,48.2,43,30.29,10.0,SW,5.8,-,N/A,,Clear,230,2013-06-21 16:15:00
12:35 PM,71.6,42.8,35,30.29,10.0,SW,6.9,-,N/A,,Clear,230,2013-06-21 16:35:00
12:55 PM,73.4,44.6,36,30.30,9.0,West,3.5,-,N/A,,Clear,260,2013-06-21 16:55:00
1:15 PM,73.4,42.8,33,30.30,10.0,West,3.5,-,N/A,,Clear,260,2013-06-21 17:15:00
1:35 PM,73.4,44.6,36,30.29,10.0,South,5.8,-,N/A,,Clear,180,2013-06-21 17:35:00
1:55 PM,73.4,44.6,36,30.30,10.0,SW,6.9,-,N/A,,Clear,220,2013-06-21 17:55:00
2:15 PM,75.2,46.4,36,30.29,10.0,West,5.8,-,N/A,,Clear,260,2013-06-21 18:15:00
2:35 PM,75.2,46.4,36,30.28,10.0,West,5.8,-,N/A,,Clear,270,2013-06-21 18:35:00
2:55 PM,75.2,48.2,38,30.28,10.0,NW,5.8,-,N/A,,Clear,320,2013-06-21 18:55:00
3:15 PM,75.2,48.2,38,30.28,10.0,West,5.8,-,N/A,,Clear,260,2013-06-21 19:15:00
3:35 PM,75.2,50.0,41,30.28,10.0,WNW,8.1,-,N/A,,Clear,300,2013-06-21 19:35:00
3:55 PM,75.2,51.8,44,30.27,10.0,WNW,3.5,-,N/A,,Clear,300,2013-06-21 19:55:00
4:15 PM,77.0,51.8,41,30.26,10.0,NW,4.6,-,N/A,,Clear,310,2013-06-21 20:15:00
4:35 PM,75.2,51.8,44,30.26,10.0,SSW,3.5,-,N/A,,Clear,210,2013-06-21 20:35:00
4:55 PM,75.2,51.8,44,30.26,10.0,SW,5.8,-,N/A,,Clear,220,2013-06-21 20:55:00
5:15 PM,75.2,51.8,44,30.25,10.0,Calm,Calm,-,N/A,,Clear,0,2013-06-21 21:15:00
5:35 PM,75.2,53.6,47,30.25,10.0,West,5.8,-,N/A,,Clear,260,2013-06-21 21:35:00
5:55 PM,75.2,51.8,44,30.25,10.0,Calm,Calm,-,N/A,,Clear,0,2013-06-21 21:55:00
6:15 PM,75.2,51.8,44,30.25,10.0,SW,4.6,-,N/A,,Clear,230,2013-06-21 22:15:00
6:35 PM,75.2,53.6,47,30.25,10.0,NW,5.8,-,N/A,,Clear,310,2013-06-21 22:35:00
6:55 PM,75.2,53.6,47,30.24,10.0,NNW,4.6,-,N/A,,Clear,340,2013-06-21 22:55:00
7:15 PM,75.2,53.6,47,30.24,10.0,North,4.6,-,N/A,,Clear,360,2013-06-21 23:15:00
7:35 PM,73.4,53.6,50,30.23,10.0,NE,3.5,-,N/A,,Clear,50,2013-06-21 23:35:00
7:55 PM,73.4,53.6,50,30.23,10.0,East,3.5,-,N/A,,Clear,80,2013-06-21 23:55:00
8:15 PM,73.4,53.6,50,30.23,10.0,ENE,3.5,-,N/A,,Clear,70,2013-06-22 00:15:00
8:35 PM,71.6,53.6,53,30.23,10.0,Calm,Calm,-,N/A,,Clear,0,2013-06-22 00:35:00
8:55 PM,71.6,53.6,53,30.23,10.0,Calm,Calm,-,N/A,,Clear,0,2013-06-22 00:55:00
9:15 PM,71.6,51.8,50,30.23,10.0,Calm,Calm,-,N/A,,Clear,0,2013-06-22 01:15:00
9:35 PM,69.8,51.8,53,30.23,10.0,Calm,Calm,-,N/A,,Clear,0,2013-06-22 01:35:00
9:55 PM,66.2,51.8,60,30.24,10.0,Calm,Calm,-,N/A,,Clear,0,2013-06-22 01:55:00
10:15 PM,66.2,51.8,60,30.24,10.0,Calm,Calm,-,N/A,,Clear,0,2013-06-22 02:15:00
10:35 PM,66.2,51.8,60,30.24,10.0,Calm,Calm,-,N/A,,Clear,0,2013-06-22 02:35:00
10:55 PM,64.4,51.8,64,30.23,10.0,SSE,4.6,-,N/A,,Clear,160,2013-06-22 02:55:00
11:15 PM,64.4,53.6,68,30.23,10.0,South,3.5,-,N/A,,Clear,170,2013-06-22 03:15:00
11:35 PM,64.4,53.6,68,30.23,10.0,SSE,4.6,-,N/A,,Clear,160,2013-06-22 03:35:00
11:55 PM,64.4,53.6,68,30.23,10.0,SSE,4.6,-,N/A,,Clear,160,2013-06-22 03:55:00